STARLINK-2313 (47986 NORAD) Tracking and Keplerian Element Data

This shows tracking and keplerian element data for the satellite.

Feedback or suggestion? Click here.




ElementValue
Catalog47986
NameSTARLINK-2313
Epoch Orbit198
Epoch Day173.91668981
Epoch Year2021
RAAN108.9222
Inclination53.0318
Eccentricity0.0001214
Argument of Perigee68.0801
Mean Anonmoly106.8334
Mean Motion15.73206768
Decay Rate7.615E-05
L11 47986U 21024K 21173.91668981 .00007615 00000-0 58601-4 0 9998
L22 47986 53.0318 108.9222 0001214 68.0801 106.8334 15.73206768 1989

Live tracking and technical data element details for STARLINK-2313 (NORAD 47986). STARLINK-2313 can be tracked NOW for your location showing map with azimuth and elevation plus other details from your city location.

Track the satellite on the map from your city or location and see movement details for azimuth, elevation, latitude, longitude, range, height, and movement on the map or in text.







IsCatalogInMostPopularTable: catalog: 47986, numindb: 43
Update: records affected: 1



GetName: 47986 STARLINK-2313

Hit Count: updated at: Thu, 24 Jun 2021 03:44:45 GMT